Regional Weather Roundup
Issued by NWS

Home | Current Version | Previous Version | Text Only | Print | Product List | Glossary On
Versions: 1 2 3 4 5 6 7 8 9 10 11 12 13 14 15 16 17 18 19 20 21 22 23 24 25 26 27 28 29 30 31 32 33 34 35 36 37 38 39 40 41 42 43 44 45 46 47 48 49 50
894
ASUS44 KJAN 261510
RWRMS

MISSISSIPPI HOURLY WEATHER ROUNDUP
NATIONAL WEATHER SERVICE JACKSON MS
900 AM CST THU FEB 26 2015

NOTE: "FAIR: INDICATES FEW OR NO CLOUDS BELOW 12,000 FEET WITH NO
SIGNIFICANT WEATHER AND/OR OBSTRUCTIONS TO VISIBILITY.

MSZ001>002-007>008-010>013-018>021-025>028-034>036-261600-
NORTHWEST MISSISSIPPI

CITY           SKY/WX    TMP DP  RH WIND       PRES   REMARKS
CLARKSDALE     CLOUDY    28  28 100 CALM      30.11R VSB 1/2
CLEVELAND      FOG       29  29 100 CALM      30.10R VSB 1/4
GREENWOOD      CLOUDY    30  29  96 N6        30.10R FOG     WCI  24
GREENVILLE     FOG       30  28  92 NW6       30.09R VSB 1/2 WCI  24
OLIVE BRANCH   MOSUNNY   30  30 100 CALM      30.07R FOG
OXFORD         CLOUDY    28  27  93 W3        30.09R FOG
TUNICA         FOG       30  28  93 CALM      30.11R VSB 1/4
$$

MSZ003>006-009-014>017-022>024-029>033-037>039-261600-
NORTHEAST MISSISSIPPI

CITY           SKY/WX    TMP DP  RH WIND       PRES   REMARKS
COLUMBUS AFB   CLOUDY    30  29  99 NW7       30.05R WCI  23
CORINTH        LGT RAIN  32  28  86 W3        30.05R
GOLDN TRIANGLE FOG       30  28  93 CALM      30.04R VSB 1/2
STARKVILLE     CLOUDY    32  32 100 CALM      30.06R FOG
TUPELO         CLOUDY    30  26  85 N8        30.07R WCI  22
$$

MSZ040-058-261600-
CENTRAL MISSISSIPPI

CITY           SKY/WX    TMP DP  RH WIND       PRES   REMARKS
JACKSON INTL   CLOUDY    34  31  88 N9        30.09R WCI  27
JACKSON HAWKNS CLOUDY    33  30  88 N5        30.09R WCI  29
MERIDIAN KEY   CLOUDY    36  32  85 N10       30.05R WCI  28
MERIDIAN NAS   CLOUDY    35  31  85 NW8       30.05R WCI  29
VICKSBURG      CLOUDY    34  31  88 N8        30.13R WCI  27
$$

MSZ059>079-261600-
SOUTH MISSISSIPPI

CITY           SKY/WX    TMP DP  RH WIND       PRES   REMARKS
BROOKHAVEN     CLOUDY    34  34 100 NW9       30.09R WCI  26
HATTIESBURG    CLOUDY    37  33  85 N7        30.06R WCI  32
MCCOMB         CLOUDY    35  31  85 N8        30.07R WCI  29
NATCHEZ        CLOUDY    34  30  86 N10       30.12R WCI  26
PINE BELT      CLOUDY    37  30  75 N6        30.06R WCI  33
$$

MSZ080>082-261600-
COASTAL MISSISSIPPI

CITY           SKY/WX    TMP DP  RH WIND       PRES   REMARKS
BAY ST LOUIS   CLOUDY    37  30  75 N14       30.06R WCI  29
BILOXI         CLOUDY    38  35  86 N9        30.03R WCI  32
PASCAGOULA     CLOUDY    39  34  82 N10       30.01R WCI  32
GULFPORT       CLOUDY    38  33  82 N10       30.03R WCI  31
$$



USA.gov is the U.S. government's official web portal to all federal, state and local government web resources and services.